M I D A S
Marine Information and Data Acquisition System
Tripno 487 of the Zeeleeuw from 2003-04-08 07:50:36 to 2003-04-08 14:24:24
Back to CruiseResearch ActivitiesStationsMapUnderway DataData graphs

EquipmentUnitsComments
TimeDGPSUTC
LatitudeDGPSDM.mWGS84
LongitudeDGPSDM.mWGS84
SpeedMeteo Stationm/sRelative wind speed
DirectionMeteo StationdegRelative wind direction
TemperatureMeteo Stationdeg CelciusAir temperature
PressureMeteo StationPaAtmospheric pressure
HumidityMeteo Station%Relative humidity
Missing or incorrect values are displayed as -999
Metereological data collected by the RV Zeeleeuw from 2003-04-08 07:50:36 to 2003-04-08 14:24:24
                                                                                    Next 1000 lines
Time Latitude Longitude Speed Direction Temperature Pressure Humidity
2003-04-08 07:50:44 51°13.599 2°56.104 1.5 359 3.4 102580 49
2003-04-08 07:50:48 51°13.599 2°56.104 0.9 30 3.4 102580 49
2003-04-08 07:50:54 51°13.599 2°56.103 1.1 358 3.4 102580 49
2003-04-08 07:50:58 51°13.598 2°56.102 1.4 9 3.4 102580 49
2003-04-08 07:51:04 51°13.598 2°56.101 1 30 3.4 102580 49
2003-04-08 07:51:08 51°13.598 2°56.101 1.2 23 3.4 102580 49
2003-04-08 07:51:14 51°13.599 2°56.101 1.7 30 3.4 102580 49
2003-04-08 07:51:18 51°13.599 2°56.101 1.9 35 3.5 102580 49
2003-04-08 07:51:24 51°13.6 2°56.102 1.4 37 3.5 102580 49
2003-04-08 07:51:28 51°13.6 2°56.101 2.3 50 3.5 102580 49
2003-04-08 07:51:34 51°13.6 2°56.098 1.7 48 3.5 102580 49
2003-04-08 07:51:39 51°13.601 2°56.096 1.8 53 3.5 102580 49
2003-04-08 07:51:44 51°13.601 2°56.092 1.9 75 3.5 102580 49
2003-04-08 07:51:48 51°13.602 2°56.088 1.6 101 3.5 102580 49
2003-04-08 07:51:55 51°13.603 2°56.081 2.1 92 3.5 102580 49
2003-04-08 07:52:00 51°13.604 2°56.076 1.7 79 3.5 102580 49
2003-04-08 07:52:04 51°13.605 2°56.07 1.3 111 3.5 102580 49
2003-04-08 07:52:10 51°13.607 2°56.061 1.8 94 3.5 102580 49
2003-04-08 07:52:15 51°13.608 2°56.053 1.3 56 3.5 102580 49
2003-04-08 07:52:20 51°13.61 2°56.046 2 45 3.5 102580 49
2003-04-08 07:52:24 51°13.611 2°56.039 1.8 50 3.5 102580 49
2003-04-08 07:52:30 51°13.615 2°56.03 1.4 68 3.5 102580 49
2003-04-08 07:52:35 51°13.617 2°56.021 1.3 69 3.5 102580 49
2003-04-08 07:52:40 51°13.619 2°56.012 1.3 85 3.4 102590 49
2003-04-08 07:52:45 51°13.621 2°56.003 1 118 3.4 102590 49
2003-04-08 07:52:50 51°13.623 2°55.993 0.8 118 3.4 102580 49
2003-04-08 07:52:55 51°13.625 2°55.982 1.3 91 3.4 102580 49
2003-04-08 07:53:00 51°13.627 2°55.971 1 52 3.4 102580 49
2003-04-08 07:53:04 51°13.628 2°55.962 0.8 88 3.4 102580 49
2003-04-08 07:53:10 51°13.631 2°55.949 0.9 98 3.4 102580 49
2003-04-08 07:53:15 51°13.634 2°55.937 0.7 101 3.4 102580 49
2003-04-08 07:53:20 51°13.637 2°55.926 1 91 3.4 102580 49
2003-04-08 07:53:24 51°13.64 2°55.917 0.7 73 3.4 102580 49
2003-04-08 07:53:30 51°13.643 2°55.904 0.7 118 3.4 102590 49
2003-04-08 07:53:35 51°13.647 2°55.894 1.4 111 3.4 102590 49
2003-04-08 07:53:40 51°13.65 2°55.884 1.3 108 3.4 102580 49
2003-04-08 07:53:44 51°13.653 2°55.876 1.3 132 3.4 102580 49
2003-04-08 07:53:50 51°13.656 2°55.865 1.2 132 3.4 102580 49
2003-04-08 07:53:55 51°13.659 2°55.855 2.5 110 3.4 102580 49
2003-04-08 07:54:00 51°13.662 2°55.845 2.1 106 3.4 102580 50
2003-04-08 07:54:04 51°13.664 2°55.838 1.4 107 3.4 102580 50
2003-04-08 07:54:09 51°13.667 2°55.828 1.4 48 3.4 102580 50
2003-04-08 07:54:14 51°13.669 2°55.819 2 52 3.4 102580 50
2003-04-08 07:54:18 51°13.671 2°55.813 1.9 61 3.3 102580 49
2003-04-08 07:54:24 51°13.673 2°55.803 1.8 58 3.3 102580 49
2003-04-08 07:54:28 51°13.674 2°55.796 1.5 63 3.3 102580 49
2003-04-08 07:54:34 51°13.676 2°55.786 2.1 77 3.3 102580 49
2003-04-08 07:54:39 51°13.677 2°55.778 2.8 80 3.3 102580 49
2003-04-08 07:54:44 51°13.678 2°55.772 1.4 75 3.3 102580 49
2003-04-08 07:54:48 51°13.679 2°55.767 1.5 60 3.3 102580 49
2003-04-08 07:54:54 51°13.68 2°55.763 2.2 15 3.3 102580 49
2003-04-08 07:54:58 51°13.681 2°55.761 2.6 25 3.3 102580 49
2003-04-08 07:55:04 51°13.682 2°55.759 3.8 351 3.3 102580 49
2003-04-08 07:55:08 51°13.683 2°55.759 3.6 349 3.3 102580 49
2003-04-08 07:55:14 51°13.683 2°55.758 2.9 348 3.3 102580 49
2003-04-08 07:55:18 51°13.684 2°55.758 3.7 343 3.3 102580 49
2003-04-08 07:55:24 51°13.685 2°55.76 3.5 324 3.3 102580 49
2003-04-08 07:55:28 51°13.686 2°55.762 4.2 333 3.3 102580 48
2003-04-08 07:55:34 51°13.689 2°55.764 3.8 314 3.3 102580 48
2003-04-08 07:55:38 51°13.69 2°55.766 3.5 312 3.3 102580 48
2003-04-08 07:55:44 51°13.692 2°55.769 4.3 300 3.3 102580 48
2003-04-08 07:55:48 51°13.694 2°55.77 4.3 298 3.3 102580 46
2003-04-08 07:55:54 51°13.697 2°55.772 4.4 298 3.3 102580 46
2003-04-08 07:55:59 51°13.7 2°55.773 3.8 297 3.2 102580 47
2003-04-08 07:56:04 51°13.703 2°55.774 3.1 298 3.2 102580 47
2003-04-08 07:56:08 51°13.705 2°55.774 3.2 298 3.2 102580 47
2003-04-08 07:56:14 51°13.709 2°55.775 2.8 292 3.2 102580 47
2003-04-08 07:56:19 51°13.712 2°55.776 1.9 282 3.1 102580 48
2003-04-08 07:56:24 51°13.715 2°55.775 2.4 292 3.1 102580 48
2003-04-08 07:56:28 51°13.716 2°55.774 2.4 241 3.1 102580 48
2003-04-08 07:56:34 51°13.718 2°55.773 2.6 240 3.1 102580 48
2003-04-08 07:56:39 51°13.718 2°55.773 2.4 237 3.1 102580 49
2003-04-08 07:56:44 51°13.718 2°55.773 2.7 246 3.1 102580 49
2003-04-08 07:56:48 51°13.717 2°55.773 2.6 220 3 102580 49
2003-04-08 07:56:54 51°13.716 2°55.773 2.3 134 3 102580 49
2003-04-08 07:56:59 51°13.714 2°55.773 2.8 215 3 102580 50
2003-04-08 07:57:04 51°13.712 2°55.773 2.4 226 3 102580 50
2003-04-08 07:57:10 51°13.709 2°55.773 2.5 215 3 102580 50
2003-04-08 07:57:14 51°13.708 2°55.773 2.7 234 3 102580 50
2003-04-08 07:57:20 51°13.706 2°55.773 2.6 219 3 102580 50
2003-04-08 07:57:24 51°13.706 2°55.773 2.9 196 3 102580 50
2003-04-08 07:57:28 51°13.706 2°55.773 3.2 217 3 102580 49
2003-04-08 07:57:34 51°13.706 2°55.772 2.5 241 3 102580 49
2003-04-08 07:57:38 51°13.707 2°55.77 2.4 237 3 102580 49
2003-04-08 07:57:44 51°13.71 2°55.768 2.2 252 3 102580 49
2003-04-08 07:57:48 51°13.712 2°55.766 2 247 3 102580 49
2003-04-08 07:57:54 51°13.717 2°55.761 2.1 247 3 102580 49
2003-04-08 07:57:58 51°13.72 2°55.757 2.5 284 3 102580 50
2003-04-08 07:58:04 51°13.726 2°55.751 3.3 268 3 102580 50
2003-04-08 07:58:08 51°13.731 2°55.746 2.7 246 3 102580 52
2003-04-08 07:58:14 51°13.737 2°55.739 1.8 308 3 102580 52
2003-04-08 07:58:18 51°13.742 2°55.733 1.9 264 3 102580 51
2003-04-08 07:58:24 51°13.749 2°55.725 2.3 285 3 102580 51
2003-04-08 07:58:28 51°13.754 2°55.719 2.4 277 3.1 102580 50
2003-04-08 07:58:34 51°13.761 2°55.709 2 284 3.1 102580 50
2003-04-08 07:58:38 51°13.767 2°55.703 1.9 308 3 102580 49
2003-04-08 07:58:44 51°13.775 2°55.693 2.1 318 3 102580 49
2003-04-08 07:58:48 51°13.78 2°55.686 2 326 3 102580 49
2003-04-08 07:58:54 51°13.789 2°55.676 2.4 297 3 102580 49
2003-04-08 07:58:58 51°13.796 2°55.67 2.9 315 3 102580 50
2003-04-08 07:59:04 51°13.805 2°55.66 2.8 297 3 102580 50
2003-04-08 07:59:08 51°13.811 2°55.654 3.4 306 3 102580 51
2003-04-08 07:59:14 51°13.821 2°55.644 3.9 306 3 102580 51
2003-04-08 07:59:18 51°13.828 2°55.637 3.5 300 2.9 102580 50
2003-04-08 07:59:24 51°13.839 2°55.628 3.2 303 2.9 102580 50
2003-04-08 07:59:28 51°13.845 2°55.622 2.9 335 2.9 102580 49
2003-04-08 07:59:34 51°13.856 2°55.613 4.4 332 2.9 102580 49
2003-04-08 07:59:38 51°13.865 2°55.607 4.2 329 2.9 102580 50
2003-04-08 07:59:44 51°13.876 2°55.599 3.7 304 2.9 102580 50
2003-04-08 07:59:48 51°13.883 2°55.593 3.3 296 2.9 102580 50
2003-04-08 07:59:54 51°13.894 2°55.585 3.4 298 2.9 102580 50
2003-04-08 07:59:58 51°13.902 2°55.579 3.4 290 2.9 102580 50
2003-04-08 08:00:04 51°13.913 2°55.571 3.3 283 2.9 102580 50
2003-04-08 08:00:08 51°13.921 2°55.565 3.2 299 2.8 102580 50
2003-04-08 08:00:14 51°13.932 2°55.557 3.6 291 2.8 102580 50
2003-04-08 08:00:19 51°13.941 2°55.55 3 280 2.8 102580 51
2003-04-08 08:00:24 51°13.951 2°55.542 3.3 301 2.8 102580 51
2003-04-08 08:00:28 51°13.959 2°55.537 4 323 2.8 102580 50
2003-04-08 08:00:34 51°13.97 2°55.528 3 301 2.8 102580 50
2003-04-08 08:00:39 51°13.98 2°55.521 3.4 321 2.8 102580 51
2003-04-08 08:00:44 51°13.99 2°55.514 3.9 317 2.8 102580 51
2003-04-08 08:00:48 51°13.998 2°55.508 3.6 309 2.8 102580 51
2003-04-08 08:00:54 51°14.011 2°55.499 3.6 322 2.8 102580 51
2003-04-08 08:00:59 51°14.021 2°55.492 3.9 318 2.8 102580 52
2003-04-08 08:01:04 51°14.031 2°55.485 4.2 316 2.8 102580 52
2003-04-08 08:01:08 51°14.039 2°55.48 3.9 304 2.8 102580 53
2003-04-08 08:01:14 51°14.051 2°55.473 5.1 303 2.8 102580 53
2003-04-08 08:01:19 51°14.061 2°55.466 5.1 303 2.8 102580 54
2003-04-08 08:01:24 51°14.07 2°55.459 4.7 312 2.8 102580 54
2003-04-08 08:01:28 51°14.078 2°55.453 5.2 305 2.8 102580 53
2003-04-08 08:01:34 51°14.09 2°55.445 4.2 291 2.8 102580 53
2003-04-08 08:01:38 51°14.097 2°55.439 4.9 300 2.8 102580 50
2003-04-08 08:01:44 51°14.109 2°55.431 4.8 322 2.8 102580 50
2003-04-08 08:01:48 51°14.117 2°55.424 4.4 315 2.7 102580 51
2003-04-08 08:01:54 51°14.128 2°55.415 3.6 303 2.7 102580 51
2003-04-08 08:01:58 51°14.136 2°55.409 4.7 304 2.7 102580 49
2003-04-08 08:02:04 51°14.146 2°55.398 4.9 299 2.7 102580 49
2003-04-08 08:02:08 51°14.154 2°55.391 3.7 304 2.7 102580 50
2003-04-08 08:02:14 51°14.165 2°55.381 3.8 294 2.7 102580 50
2003-04-08 08:02:18 51°14.173 2°55.373 3.3 291 2.7 102580 50
2003-04-08 08:02:24 51°14.184 2°55.362 2.9 284 2.7 102580 50
2003-04-08 08:02:28 51°14.192 2°55.355 2.7 278 2.7 102580 50
2003-04-08 08:02:34 51°14.203 2°55.344 2 290 2.7 102580 50
2003-04-08 08:02:39 51°14.212 2°55.333 1.9 287 2.7 102580 50
2003-04-08 08:02:44 51°14.221 2°55.323 2 302 2.7 102580 50
2003-04-08 08:02:48 51°14.227 2°55.314 1.9 314 2.7 102590 49
2003-04-08 08:02:52 51°14.235 2°55.305 2.4 324 2.7 102590 49
2003-04-08 08:02:58 51°14.244 2°55.291 2.8 314 2.7 102590 49
2003-04-08 08:03:04 51°14.254 2°55.276 2.3 301 2.7 102590 49
2003-04-08 08:03:08 51°14.26 2°55.267 2.4 317 2.7 102590 51
2003-04-08 08:03:14 51°14.269 2°55.251 1.9 315 2.7 102590 51
2003-04-08 08:03:19 51°14.276 2°55.238 1.8 289 2.7 102590 52
2003-04-08 08:03:23 51°14.281 2°55.227 1.8 291 2.7 102590 52
2003-04-08 08:03:28 51°14.288 2°55.213 1.6 276 2.7 102580 51
2003-04-08 08:03:34 51°14.296 2°55.196 2.2 321 2.7 102580 51
2003-04-08 08:03:38 51°14.301 2°55.185 2.5 319 2.7 102590 51
2003-04-08 08:03:44 51°14.31 2°55.169 3.1 308 2.7 102590 51
2003-04-08 08:03:48 51°14.315 2°55.158 3 324 2.7 102590 51
2003-04-08 08:03:54 51°14.323 2°55.141 3.4 323 2.7 102590 51
2003-04-08 08:03:59 51°14.329 2°55.127 3 304 2.7 102590 51
2003-04-08 08:04:04 51°14.336 2°55.112 2 307 2.7 102590 51
2003-04-08 08:04:08 51°14.34 2°55.101 2.2 296 2.8 102590 54
2003-04-08 08:04:14 51°14.348 2°55.084 2.5 309 2.8 102590 54
2003-04-08 08:04:18 51°14.353 2°55.072 2.5 321 2.8 102590 54
2003-04-08 08:04:24 51°14.36 2°55.055 2.6 329 2.8 102590 54
2003-04-08 08:04:28 51°14.365 2°55.043 3.2 341 2.8 102580 53
2003-04-08 08:04:34 51°14.372 2°55.025 3.1 320 2.8 102580 53
2003-04-08 08:04:38 51°14.377 2°55.013 2.3 334 2.8 102590 51
2003-04-08 08:04:44 51°14.383 2°54.994 2.2 320 2.8 102590 51
2003-04-08 08:04:48 51°14.386 2°54.981 2 339 2.8 102580 52
2003-04-08 08:04:54 51°14.391 2°54.961 2.1 334 2.8 102580 52
2003-04-08 08:04:58 51°14.393 2°54.947 1.7 337 2.8 102590 54
2003-04-08 08:05:04 51°14.395 2°54.927 1.2 339 2.8 102590 54
2003-04-08 08:05:08 51°14.396 2°54.913 1.1 345 2.8 102590 53
2003-04-08 08:05:12 51°14.397 2°54.898 1.5 345 2.8 102590 53
2003-04-08 08:05:18 51°14.399 2°54.877 1.4 345 2.8 102590 53
2003-04-08 08:05:24 51°14.399 2°54.855 1.5 348 2.8 102590 53
2003-04-08 08:05:28 51°14.399 2°54.841 1.6 351 2.8 102590 53
2003-04-08 08:05:34 51°14.399 2°54.819 1.8 354 2.8 102590 53
2003-04-08 08:05:38 51°14.4 2°54.804 1.5 349 2.8 102590 53
2003-04-08 08:05:44 51°14.4 2°54.783 1.2 358 2.8 102590 53
2003-04-08 08:05:48 51°14.4 2°54.768 1.3 357 2.9 102590 53
2003-04-08 08:05:54 51°14.4 2°54.746 1.2 346 2.9 102590 53
2003-04-08 08:05:58 51°14.4 2°54.731 1.1 345 2.9 102600 53
2003-04-08 08:06:04 51°14.4 2°54.709 1.2 346 2.9 102600 53
2003-04-08 08:06:08 51°14.399 2°54.694 1.2 352 2.9 102590 53
2003-04-08 08:06:14 51°14.398 2°54.672 0.8 1 2.9 102590 53
2003-04-08 08:06:18 51°14.397 2°54.658 0.7 2 2.9 102590 52
2003-04-08 08:06:24 51°14.396 2°54.639 0.6 5 2.9 102590 52
2003-04-08 08:06:28 51°14.395 2°54.626 0.5 5 2.9 102600 51
2003-04-08 08:06:34 51°14.393 2°54.608 0.7 348 2.9 102600 51
2003-04-08 08:06:38 51°14.392 2°54.597 0.8 31 2.9 102590 51
2003-04-08 08:06:44 51°14.39 2°54.58 0.8 62 2.9 102590 51
2003-04-08 08:06:48 51°14.389 2°54.569 1 63 2.9 102590 52
2003-04-08 08:06:54 51°14.386 2°54.553 0.8 63 2.9 102590 52
2003-04-08 08:06:58 51°14.385 2°54.543 0.9 69 2.9 102590 52
2003-04-08 08:07:04 51°14.383 2°54.529 1.4 68 2.9 102590 52
2003-04-08 08:07:08 51°14.382 2°54.519 1.3 71 3 102590 53
2003-04-08 08:07:14 51°14.379 2°54.505 1.3 69 3 102590 53
2003-04-08 08:07:18 51°14.378 2°54.495 1.1 68 3 102590 53
2003-04-08 08:07:24 51°14.375 2°54.482 1.2 75 3 102590 53
2003-04-08 08:07:28 51°14.373 2°54.473 1.1 80 3.1 102590 53
2003-04-08 08:07:34 51°14.371 2°54.46 1.5 86 3.1 102590 53
2003-04-08 08:07:38 51°14.37 2°54.452 1 86 3.1 102590 53
2003-04-08 08:07:44 51°14.367 2°54.439 1.5 88 3.1 102590 53
2003-04-08 08:07:48 51°14.365 2°54.431 1.3 92 3.1 102590 53
2003-04-08 08:07:54 51°14.363 2°54.418 1 99 3.1 102590 53
2003-04-08 08:07:58 51°14.362 2°54.411 1.4 122 3.2 102590 53
2003-04-08 08:08:04 51°14.36 2°54.399 1.7 95 3.2 102590 53
2003-04-08 08:08:08 51°14.358 2°54.391 1 112 3.2 102600 53
2003-04-08 08:08:14 51°14.355 2°54.38 0.9 108 3.2 102600 53
2003-04-08 08:08:18 51°14.354 2°54.372 0.6 103 3.3 102590 53
2003-04-08 08:08:24 51°14.352 2°54.362 1.6 100 3.3 102590 53
2003-04-08 08:08:28 51°14.351 2°54.354 1.3 103 3.3 102590 53
2003-04-08 08:08:34 51°14.349 2°54.344 1.3 105 3.3 102590 53
2003-04-08 08:08:38 51°14.348 2°54.337 1 108 3.4 102590 53
2003-04-08 08:08:44 51°14.346 2°54.327 1.2 112 3.4 102590 53
2003-04-08 08:08:48 51°14.344 2°54.32 1.1 110 3.4 102590 54
2003-04-08 08:08:54 51°14.341 2°54.309 1.1 107 3.4 102590 54
2003-04-08 08:08:58 51°14.34 2°54.302 1.1 106 3.5 102590 54
2003-04-08 08:09:04 51°14.338 2°54.293 1.2 99 3.5 102590 54
2003-04-08 08:09:08 51°14.336 2°54.286 1.8 95 3.5 102590 52
2003-04-08 08:09:14 51°14.333 2°54.277 1.6 100 3.5 102590 52
2003-04-08 08:09:18 51°14.332 2°54.271 1.9 91 3.5 102600 52
2003-04-08 08:09:24 51°14.329 2°54.262 1.6 101 3.5 102600 52
2003-04-08 08:09:28 51°14.328 2°54.256 1.8 103 3.5 102590 51
2003-04-08 08:09:34 51°14.325 2°54.247 1.1 105 3.5 102590 51
2003-04-08 08:09:39 51°14.322 2°54.24 1.4 106 3.6 102600 51
2003-04-08 08:09:44 51°14.321 2°54.233 1.4 110 3.6 102600 51
2003-04-08 08:09:48 51°14.319 2°54.227 1.1 106 3.6 102590 51
2003-04-08 08:09:54 51°14.316 2°54.219 2.2 93 3.6 102590 51
2003-04-08 08:09:59 51°14.313 2°54.211 2.3 97 3.6 102590 50
2003-04-08 08:10:04 51°14.311 2°54.204 2 94 3.6 102590 50
2003-04-08 08:10:08 51°14.309 2°54.199 2.1 97 3.6 102600 49
2003-04-08 08:10:14 51°14.306 2°54.191 1.5 105 3.6 102600 49
2003-04-08 08:10:19 51°14.304 2°54.184 2 103 3.6 102600 49
2003-04-08 08:10:24 51°14.301 2°54.178 1.8 123 3.6 102600 49
2003-04-08 08:10:28 51°14.299 2°54.172 1.5 113 3.6 102590 50
2003-04-08 08:10:34 51°14.296 2°54.164 1.5 93 3.6 102590 50
2003-04-08 08:10:38 51°14.294 2°54.159 1.9 101 3.6 102590 50
2003-04-08 08:10:44 51°14.292 2°54.151 1.4 117 3.6 102590 50
2003-04-08 08:10:48 51°14.29 2°54.145 1.8 114 3.6 102590 50
2003-04-08 08:10:54 51°14.287 2°54.137 2.3 100 3.6 102590 50
2003-04-08 08:10:58 51°14.285 2°54.131 1.9 99 3.6 102600 50
2003-04-08 08:11:04 51°14.282 2°54.121 1.9 101 3.6 102600 50
2003-04-08 08:11:08 51°14.279 2°54.113 1.9 108 3.6 102590 51
2003-04-08 08:11:14 51°14.274 2°54.1 1.8 99 3.6 102590 51
2003-04-08 08:11:19 51°14.27 2°54.087 2.1 76 3.7 102590 52
2003-04-08 08:11:24 51°14.266 2°54.072 1.9 63 3.7 102590 52
2003-04-08 08:11:28 51°14.262 2°54.06 2.2 51 3.7 102590 52
2003-04-08 08:11:34 51°14.257 2°54.041 2.2 38 3.7 102590 52
2003-04-08 08:11:38 51°14.253 2°54.026 2.8 37 3.7 102600 52
2003-04-08 08:11:44 51°14.245 2°54.003 2.7 21 3.7 102600 52
2003-04-08 08:11:48 51°14.24 2°53.986 3.2 28 3.7 102590 53
2003-04-08 08:11:54 51°14.232 2°53.959 3.2 20 3.7 102590 53
2003-04-08 08:11:59 51°14.224 2°53.936 3 17 3.8 102600 52
2003-04-08 08:12:04 51°14.218 2°53.912 3.4 16 3.8 102600 52
2003-04-08 08:12:08 51°14.212 2°53.893 3.3 11 3.8 102590 50
2003-04-08 08:12:14 51°14.204 2°53.864 3.4 18 3.8 102590 50
2003-04-08 08:12:18 51°14.198 2°53.844 3.5 8 3.8 102590 49
2003-04-08 08:12:24 51°14.189 2°53.815 3.3 14 3.8 102590 49
2003-04-08 08:12:28 51°14.183 2°53.795 3.8 11 3.7 102590 48
2003-04-08 08:12:34 51°14.174 2°53.764 4 10 3.7 102590 48
2003-04-08 08:12:39 51°14.166 2°53.739 3.7 8 3.7 102590 48
2003-04-08 08:12:44 51°14.159 2°53.713 3.8 15 3.7 102590 48
2003-04-08 08:12:48 51°14.152 2°53.692 3 11 3.7 102580 48
2003-04-08 08:12:54 51°14.144 2°53.66 3.2 17 3.7 102580 48
2003-04-08 08:12:58 51°14.137 2°53.639 3.3 15 3.7 102590 48
2003-04-08 08:13:04 51°14.128 2°53.607 3.3 18 3.7 102590 48
2003-04-08 08:13:08 51°14.121 2°53.585 3.1 5 3.7 102590 48
2003-04-08 08:13:14 51°14.111 2°53.553 3.7 16 3.7 102590 48
2003-04-08 08:13:18 51°14.105 2°53.532 3.7 4 3.6 102590 48
2003-04-08 08:13:24 51°14.096 2°53.499 4.7 6 3.6 102590 48
2003-04-08 08:13:28 51°14.089 2°53.477 4.8 9 3.6 102590 48
2003-04-08 08:13:34 51°14.08 2°53.444 4.3 9 3.6 102590 48
2003-04-08 08:13:39 51°14.072 2°53.417 4.2 7 3.6 102590 49
2003-04-08 08:13:44 51°14.064 2°53.39 3.9 358 3.6 102590 49
2003-04-08 08:13:48 51°14.058 2°53.368 4.2 359 3.6 102580 49
2003-04-08 08:13:54 51°14.048 2°53.336 4.2 8 3.6 102580 49
2003-04-08 08:13:58 51°14.042 2°53.314 4.2 349 3.6 102590 50
2003-04-08 08:14:03 51°14.034 2°53.286 4 359 3.6 102590 50
2003-04-08 08:14:09 51°14.025 2°53.253 4.3 360 3.6 102590 50
2003-04-08 08:14:14 51°14.016 2°53.226 4.1 358 3.6 102590 50
2003-04-08 08:14:18 51°14.01 2°53.204 3.9 359 3.6 102590 49
2003-04-08 08:14:24 51°14 2°53.171 4.5 356 3.6 102590 49
2003-04-08 08:14:28 51°13.993 2°53.148 4.5   3.6 102590 49
2003-04-08 08:14:34 51°13.983 2°53.116 4.2 354 3.6 102590 49
2003-04-08 08:14:39 51°13.974 2°53.09 4.3 356 3.5 102590 49
2003-04-08 08:14:44 51°13.965 2°53.063 3.8 357 3.5 102590 49
2003-04-08 08:14:48 51°13.957 2°53.041 4 358 3.5 102590 50
2003-04-08 08:14:54 51°13.948 2°53.007 4.2 3 3.5 102590 50
2003-04-08 08:14:59 51°13.938 2°52.981 4 359 3.5 102590 50
2003-04-08 08:15:03 51°13.931 2°52.96 3.8 7 3.5 102590 50
2003-04-08 08:15:08 51°13.921 2°52.934 4.2 356 3.5 102590 50
2003-04-08 08:15:14 51°13.91 2°52.903 3.9 2 3.5 102590 50
2003-04-08 08:15:19 51°13.901 2°52.878 3.6 357 3.4 102590 49
2003-04-08 08:15:24 51°13.892 2°52.851 3.4 5 3.4 102590 49
2003-04-08 08:15:28 51°13.884 2°52.83 3.4 358 3.4 102590 48
2003-04-08 08:15:34 51°13.873 2°52.797 4.3 10 3.4 102590 48
2003-04-08 08:15:38 51°13.866 2°52.776 4.3 15 3.4 102590 47
2003-04-08 08:15:44 51°13.856 2°52.744 3.5 7 3.4 102590 47
2003-04-08 08:15:48 51°13.848 2°52.724 4.1 10 3.4 102590 47
2003-04-08 08:15:54 51°13.838 2°52.692 4.2 5 3.4 102590 47
2003-04-08 08:15:59 51°13.829 2°52.666 4.4 5 3.3 102590 48
2003-04-08 08:16:04 51°13.82 2°52.64 4.6 5 3.3 102590 48
2003-04-08 08:16:08 51°13.812 2°52.619 4.7 5 3.4 102590 47
2003-04-08 08:16:14 51°13.8 2°52.588 4.3 354 3.4 102590 47
2003-04-08 08:16:18 51°13.794 2°52.566 4.1 1 3.3 102590 48
2003-04-08 08:16:24 51°13.783 2°52.535 4 351 3.3 102590 48
2003-04-08 08:16:28 51°13.776 2°52.513 4 358 3.3 102590 49
2003-04-08 08:16:34 51°13.764 2°52.482 3.4 1 3.3 102590 49
2003-04-08 08:16:39 51°13.756 2°52.456 3.9 356 3.3 102590 48
2003-04-08 08:16:44 51°13.746 2°52.43 4.7 354 3.3 102590 48
2003-04-08 08:16:48 51°13.739 2°52.41 4.4   3.3 102590 47
2003-04-08 08:16:54 51°13.728 2°52.379 4.8 355 3.3 102590 47
2003-04-08 08:16:58 51°13.721 2°52.358 4.9 7 3.3 102590 49
2003-04-08 08:17:04 51°13.71 2°52.326 4.5 359 3.3 102590 49
2003-04-08 08:17:08 51°13.703 2°52.305 4.6 9 3.3 102590 50
2003-04-08 08:17:14 51°13.692 2°52.272 5 359 3.3 102590 50
2003-04-08 08:17:19 51°13.682 2°52.245 4.7 4 3.3 102590 50
2003-04-08 08:17:24 51°13.673 2°52.217 5.5 1 3.3 102590 50
2003-04-08 08:17:28 51°13.665 2°52.196 5.2 5 3.3 102590 50
2003-04-08 08:17:34 51°13.655 2°52.165 4.8 358 3.3 102590 50
2003-04-08 08:17:39 51°13.646 2°52.139 4.9 354 3.3 102580 50
2003-04-08 08:17:44 51°13.637 2°52.113 5.2 7 3.3 102580 50
2003-04-08 08:17:48 51°13.63 2°52.093 4.7 2 3.3 102590 49
2003-04-08 08:17:54 51°13.619 2°52.062 5.1 8 3.3 102590 49
2003-04-08 08:17:59 51°13.609 2°52.035 4.6 5 3.3 102590 50
2003-04-08 08:18:04 51°13.6 2°52.008 4.7 11 3.3 102590 50
2003-04-08 08:18:08 51°13.593 2°51.986 4.6 9 3.3 102590 50
2003-04-08 08:18:14 51°13.582 2°51.954 4.6 6 3.3 102590 50
2003-04-08 08:18:19 51°13.572 2°51.928 4.7 10 3.3 102580 49
2003-04-08 08:18:24 51°13.564 2°51.902 4.7 9 3.3 102580 49
2003-04-08 08:18:28 51°13.557 2°51.881 5 12 3.3 102590 49
2003-04-08 08:18:34 51°13.545 2°51.85 4.8 14 3.3 102590 49
2003-04-08 08:18:38 51°13.539 2°51.829 4.8 9 3.3 102580 49
2003-04-08 08:18:44 51°13.527 2°51.797 5.3 10 3.3 102580 49
2003-04-08 08:18:48 51°13.52 2°51.775 4.9 9 3.3 102590 49
2003-04-08 08:18:54 51°13.509 2°51.744 4.4 4 3.3 102590 49
2003-04-08 08:18:58 51°13.502 2°51.722 4.5 11 3.3 102590 49
2003-04-08 08:19:04 51°13.491 2°51.691 4.3 4 3.3 102590 49
2003-04-08 08:19:08 51°13.484 2°51.67 4.2 2 3.3 102580 48
2003-04-08 08:19:14 51°13.473 2°51.638 5 3 3.3 102580 48
2003-04-08 08:19:18 51°13.466 2°51.616 4.9 2 3.3 102580 48
2003-04-08 08:19:24 51°13.455 2°51.585 4.3 1 3.3 102580 48
2003-04-08 08:19:28 51°13.448 2°51.564 4.6 6 3.3 102580 50
2003-04-08 08:19:34 51°13.437 2°51.531 3.9 358 3.3 102580 50
2003-04-08 08:19:39 51°13.429 2°51.504 4.1 4 3.3 102590 49
2003-04-08 08:19:44 51°13.419 2°51.478 4.5 9 3.3 102590 49
2003-04-08 08:19:48 51°13.411 2°51.457 4.8 6 3.3 102580 48
2003-04-08 08:19:54 51°13.401 2°51.425 4.6 3 3.3 102580 48
2003-04-08 08:19:59 51°13.391 2°51.398 4.6 360 3.3 102580 47
2003-04-08 08:20:04 51°13.382 2°51.371 4.5 1 3.3 102580 47
2003-04-08 08:20:08 51°13.374 2°51.349 4.3 355 3.3 102590 48
2003-04-08 08:20:12 51°13.367 2°51.327 4.8 358 3.3 102590 48
2003-04-08 08:20:18 51°13.356 2°51.294 4.4 358 3.3 102590 47
2003-04-08 08:20:24 51°13.345 2°51.26 5 357 3.3 102590 47
2003-04-08 08:20:28 51°13.337 2°51.238 5 357 3.3 102590 47
2003-04-08 08:20:34 51°13.326 2°51.204 5.1 3 3.3 102590 47
2003-04-08 08:20:39 51°13.316 2°51.177 5.1 357 3.3 102590 48
2003-04-08 08:20:44 51°13.306 2°51.149 5.2 4 3.3 102590 48
2003-04-08 08:20:48 51°13.298 2°51.126 5.5 348 3.3 102580 50
2003-04-08 08:20:54 51°13.286 2°51.092 5.3 357 3.3 102580 50
2003-04-08 08:20:58 51°13.278 2°51.069 5.1 355 3.3 102590 49
2003-04-08 08:21:04 51°13.266 2°51.034 5 353 3.3 102590 49
2003-04-08 08:21:08 51°13.259 2°51.011 5.1 357 3.2 102590 49
2003-04-08 08:21:14 51°13.247 2°50.977 4.9 351 3.2 102590 49
2003-04-08 08:21:18 51°13.239 2°50.954 5.3 3 3.2 102590 47
2003-04-08 08:21:24 51°13.228 2°50.919 4.9 355 3.2 102590 47
2003-04-08 08:21:28 51°13.22 2°50.897 4.7 5 3.2 102590 48
2003-04-08 08:21:34 51°13.208 2°50.862 4.7 355 3.2 102590 48
2003-04-08 08:21:38 51°13.2 2°50.84 5.2 358 3.2 102580 48
2003-04-08 08:21:44 51°13.188 2°50.806 5.5 7 3.2 102580 48
2003-04-08 08:21:48 51°13.18 2°50.783 5.4 1 3.2 102580 48
2003-04-08 08:21:54 51°13.169 2°50.749 5 8 3.2 102580 48
2003-04-08 08:21:58 51°13.161 2°50.727 5.4 355 3.2 102580 48
2003-04-08 08:22:04 51°13.149 2°50.693 4.8 359 3.2 102580 48
2003-04-08 08:22:08 51°13.141 2°50.67 4.7 357 3.2 102590 48
2003-04-08 08:22:14 51°13.13 2°50.634 4.6 355 3.2 102590 48
2003-04-08 08:22:18 51°13.122 2°50.611 5.1 1 3.3 102580 48
2003-04-08 08:22:24 51°13.11 2°50.576 4.9 2 3.3 102580 48
2003-04-08 08:22:28 51°13.102 2°50.554 4.5 357 3.2 102590 46
2003-04-08 08:22:34 51°13.091 2°50.519 4.7 2 3.2 102590 46
2003-04-08 08:22:39 51°13.081 2°50.49 5.1 346 3.2 102590 47
2003-04-08 08:22:44 51°13.072 2°50.461 5.6 356 3.2 102590 47
2003-04-08 08:22:48 51°13.064 2°50.439 6.2 5 3.2 102590 46
2003-04-08 08:22:54 51°13.052 2°50.404 5.8 356 3.2 102590 46
2003-04-08 08:22:59 51°13.043 2°50.376 5.9 3 3.2 102590 47
2003-04-08 08:23:04 51°13.034 2°50.346 5.6 358 3.2 102590 47
2003-04-08 08:23:08 51°13.026 2°50.323 5.8 5 3.2 102590 49
2003-04-08 08:23:14 51°13.015 2°50.287 5.4 357 3.2 102590 49
2003-04-08 08:23:19 51°13.005 2°50.259 5.1 1 3.3 102590 49
2003-04-08 08:23:24 51°12.996 2°50.229 4.9 2 3.3 102590 49
2003-04-08 08:23:28 51°12.987 2°50.207 4.7 351 3.2 102590 48
2003-04-08 08:23:34 51°12.976 2°50.171 4.8 1 3.2 102590 48
2003-04-08 08:23:39 51°12.966 2°50.143 4.8 355 3.3 102590 48
2003-04-08 08:23:44 51°12.957 2°50.114 5 358 3.3 102590 48
2003-04-08 08:23:48 51°12.949 2°50.092 5.9 352 3.3 102590 47
2003-04-08 08:23:54 51°12.937 2°50.057 6.4 355 3.3 102590 47
2003-04-08 08:23:58 51°12.929 2°50.034 6.2 360 3.3 102590 48
2003-04-08 08:24:04 51°12.917 2°49.998 6.1 352 3.3 102590 48
2003-04-08 08:24:09 51°12.907 2°49.969 5.8 352 3.3 102590 48
2003-04-08 08:24:14 51°12.898 2°49.94 6 358 3.3 102590 48
2003-04-08 08:24:18 51°12.89 2°49.917 6.2 354 3.3 102590 49
2003-04-08 08:24:24 51°12.878 2°49.883 6 357 3.3 102590 49
2003-04-08 08:24:28 51°12.871 2°49.86 6 357 3.3 102580 49
2003-04-08 08:24:34 51°12.86 2°49.825 6.1 358 3.3 102580 49
2003-04-08 08:24:38 51°12.852 2°49.802 6.1 358 3.3 102590 49
2003-04-08 08:24:44 51°12.841 2°49.767 6.1 356 3.3 102590 49
2003-04-08 08:24:48 51°12.833 2°49.744 5.9 3 3.3 102580 49
2003-04-08 08:24:54 51°12.821 2°49.71 6.7 351 3.3 102580 49
2003-04-08 08:24:59 51°12.811 2°49.682 6.6 5 3.3 102580 50
2003-04-08 08:25:04 51°12.801 2°49.653 6.6 357 3.3 102580 50
2003-04-08 08:25:08 51°12.793 2°49.63 7.1 6 3.2 102590 51
2003-04-08 08:25:14 51°12.782 2°49.595 5.9 356 3.2 102590 51
2003-04-08 08:25:19 51°12.772 2°49.566 6.6 5 3.2 102580 51
2003-04-08 08:25:24 51°12.762 2°49.537 6.9 360 3.2 102580 51
2003-04-08 08:25:28 51°12.754 2°49.514 6.5 357 3.2 102580 52
2003-04-08 08:25:34 51°12.742 2°49.48 6.8 359 3.2 102580 52
2003-04-08 08:25:38 51°12.735 2°49.457 6.2 6 3.2 102570 52
2003-04-08 08:25:44 51°12.723 2°49.422 5.8 355 3.2 102570 52
2003-04-08 08:25:48 51°12.715 2°49.399 5.9 3 3.2 102580 52
2003-04-08 08:25:54 51°12.703 2°49.364 5.8 357 3.2 102580 52
2003-04-08 08:25:59 51°12.694 2°49.335 6.2 356 3.2 102580 52
2003-04-08 08:26:04 51°12.684 2°49.305 5.6 360 3.2 102580 52
2003-04-08 08:26:08 51°12.676 2°49.282 5.8 352 3.2 102580 52
2003-04-08 08:26:14 51°12.665 2°49.247 5.7 360 3.2 102580 52
2003-04-08 08:26:19 51°12.655 2°49.218 6 355 3.2 102580 51
2003-04-08 08:26:24 51°12.646 2°49.188 5.6 360 3.2 102580 51
2003-04-08 08:26:28 51°12.638 2°49.165 5.4 352 3.2 102580 52
2003-04-08 08:26:34 51°12.626 2°49.131 5.5 356 3.2 102580 52
2003-04-08 08:26:38 51°12.619 2°49.108 5.8 1 3.2 102590 51
2003-04-08 08:26:44 51°12.607 2°49.072 5.4 358 3.2 102590 51
2003-04-08 08:26:48 51°12.6 2°49.047 5.7 355 3.2 102580 51
2003-04-08 08:26:54 51°12.589 2°49.011 6.3 354 3.2 102580 51
2003-04-08 08:26:59 51°12.58 2°48.983 6.3 1 3.3 102580 52
2003-04-08 08:27:04 51°12.57 2°48.955 5.9 356 3.3 102580 52
2003-04-08 08:27:08 51°12.562 2°48.932 6.1 358 3.2 102580 52
2003-04-08 08:27:14 51°12.55 2°48.897 5.9 357 3.2 102580 52
2003-04-08 08:27:18 51°12.544 2°48.873 6 359 3.2 102580 52
2003-04-08 08:27:24 51°12.531 2°48.839 5.9 5 3.2 102580 52
2003-04-08 08:27:28 51°12.523 2°48.816 6.2 358 3.2 102580 52
2003-04-08 08:27:34 51°12.512 2°48.781 6.3 356 3.2 102580 52
2003-04-08 08:27:39 51°12.501 2°48.753 6.4 2 3.2 102580 52
2003-04-08 08:27:44 51°12.493 2°48.724 6.7 4 3.2 102580 52
2003-04-08 08:27:48 51°12.484 2°48.702 6.9 358 3.2 102580 51
2003-04-08 08:27:52 51°12.477 2°48.679 6.5 354 3.2 102580 51
2003-04-08 08:27:58 51°12.466 2°48.644 6.9 4 3.2 102580 51
2003-04-08 08:28:04 51°12.454 2°48.609 6.6 349 3.2 102580 51
2003-04-08 08:28:08 51°12.446 2°48.585 6.6 359 3.2 102580 51
2003-04-08 08:28:14 51°12.434 2°48.551 6.1 355 3.2 102580 51
2003-04-08 08:28:19 51°12.424 2°48.523 6.5 1 3.2 102570 51
2003-04-08 08:28:24 51°12.414 2°48.494 6.2 350 3.2 102570 51
2003-04-08 08:28:28 51°12.407 2°48.47 6.1 354 3.2 102580 50
2003-04-08 08:28:34 51°12.394 2°48.435 6.4 355 3.2 102580 50
2003-04-08 08:28:38 51°12.387 2°48.411 6.6 352 3.2 102580 51
2003-04-08 08:28:44 51°12.375 2°48.376 6.4 357 3.2 102580 51
2003-04-08 08:28:48 51°12.368 2°48.353 5.9 348 3.2 102580 51
2003-04-08 08:28:54 51°12.356 2°48.318 5.9 357 3.2 102580 51
2003-04-08 08:28:58 51°12.348 2°48.296 5.7 354 3.2 102580 51
2003-04-08 08:29:04 51°12.337 2°48.262 6 348 3.2 102580 51
2003-04-08 08:29:08 51°12.329 2°48.239 5.6 352 3.2 102590 49
2003-04-08 08:29:14 51°12.317 2°48.203 5.8 348 3.2 102590 49
2003-04-08 08:29:18 51°12.31 2°48.18 5.7 358 3.3 102580 50
2003-04-08 08:29:24 51°12.298 2°48.146 5.9 350 3.3 102580 50
2003-04-08 08:29:29 51°12.288 2°48.117 5.9 359 3.3 102580 51
2003-04-08 08:29:34 51°12.279 2°48.089 6.7 351 3.3 102580 51
2003-04-08 08:29:38 51°12.271 2°48.065 6.9 359 3.4 102580 51
2003-04-08 08:29:44 51°12.26 2°48.029 6.7 358 3.4 102580 51
2003-04-08 08:29:48 51°12.252 2°48.006 6.8 2 3.2 102580 50
2003-04-08 08:29:54 51°12.241 2°47.971 6.7 358 3.2 102580 50
2003-04-08 08:29:59 51°12.231 2°47.943 6.6 3 3.3 102580 52
2003-04-08 08:30:04 51°12.222 2°47.913 6.2 355 3.3 102580 52
2003-04-08 08:30:08 51°12.215 2°47.89 6.1 4 3.2 102580 50
2003-04-08 08:30:14 51°12.203 2°47.856 6.2 352 3.2 102580 50
2003-04-08 08:30:18 51°12.195 2°47.833 6.2 360 3.2 102580 50
2003-04-08 08:30:24 51°12.183 2°47.799 5.5 354 3.2 102580 50
2003-04-08 08:30:28 51°12.175 2°47.777 5.7 360 3.3 102580 50
2003-04-08 08:30:34 51°12.164 2°47.741 6.6 1 3.3 102580 50
2003-04-08 08:30:38 51°12.156 2°47.718 6.8 356 3.2 102580 49
2003-04-08 08:30:44 51°12.144 2°47.684 6.6 350 3.2 102580 49
2003-04-08 08:30:48 51°12.137 2°47.66 6 356 3.2 102580 49
2003-04-08 08:30:54 51°12.125 2°47.626 6.1 356 3.2 102580 49
2003-04-08 08:30:59 51°12.115 2°47.597 6.5 356 3.2 102580 51
2003-04-08 08:31:04 51°12.105 2°47.567 6.2 4 3.2 102580 51
2003-04-08 08:31:08 51°12.098 2°47.544 6.4 357 3.2 102580 50
2003-04-08 08:31:14 51°12.087 2°47.509 6.1 1 3.2 102580 50
2003-04-08 08:31:19 51°12.077 2°47.48 5.9 355 3.2 102580 51
2003-04-08 08:31:24 51°12.068 2°47.451 5.8 358 3.2 102580 51
2003-04-08 08:31:28 51°12.059 2°47.428 6.2 1 3.2 102580 50
2003-04-08 08:31:34 51°12.048 2°47.393 6 356 3.2 102580 50
2003-04-08 08:31:39 51°12.038 2°47.364 6.3 1 3.2 102580 49
2003-04-08 08:31:44 51°12.028 2°47.334 6.4 356 3.2 102580 49
2003-04-08 08:31:48 51°12.021 2°47.311 6.2 360 3.2 102580 50
2003-04-08 08:31:54 51°12.009 2°47.277 6 353 3.2 102580 50
2003-04-08 08:31:58 51°12.001 2°47.253 6.5 359 3.2 102580 50
2003-04-08 08:32:04 51°11.989 2°47.218 6.1 353 3.2 102580 50
2003-04-08 08:32:08 51°11.982 2°47.195 6.2 2 3.2 102580 50
2003-04-08 08:32:14 51°11.97 2°47.16 6.2 352 3.2 102580 50
2003-04-08 08:32:18 51°11.963 2°47.136 6.5 360 3.2 102580 50
2003-04-08 08:32:24 51°11.951 2°47.102 6.3 357 3.2 102580 50
2003-04-08 08:32:28 51°11.943 2°47.078 5.8 358 3.2 102580 49
2003-04-08 08:32:34 51°11.931 2°47.044 5.6 358 3.2 102580 49
2003-04-08 08:32:39 51°11.921 2°47.015 5.7 358 3.2 102570 49
2003-04-08 08:32:44 51°11.911 2°46.986 5.5 352 3.2 102570 49
2003-04-08 08:32:48 51°11.904 2°46.962 5.3 351 3.2 102570 49
2003-04-08 08:32:54 51°11.892 2°46.928 5.6 352 3.2 102570 49
2003-04-08 08:32:58 51°11.885 2°46.904 5.6 355 3.2 102580 49
2003-04-08 08:33:04 51°11.873 2°46.869 6.3 356 3.2 102580 49
2003-04-08 08:33:08 51°11.866 2°46.846 6.1 1 3.2 102580 49
2003-04-08 08:33:14 51°11.854 2°46.811 5.9 358 3.2 102580 49
2003-04-08 08:33:19 51°11.845 2°46.782 6 359 3.2 102580 49
2003-04-08 08:33:24 51°11.836 2°46.752 5.8 2 3.2 102580 49
2003-04-08 08:33:28 51°11.828 2°46.729 5.7 356 3.2 102580 50
2003-04-08 08:33:34 51°11.817 2°46.693 5.9 5 3.2 102580 50
2003-04-08 08:33:38 51°11.809 2°46.671 5.6 353 3.2 102580 50
2003-04-08 08:33:44 51°11.798 2°46.635 5.6 1 3.2 102580 50
2003-04-08 08:33:48 51°11.79 2°46.612 5.9 356 3.2 102580 50
2003-04-08 08:33:54 51°11.779 2°46.577 5.6 359 3.2 102580 50
2003-04-08 08:33:59 51°11.769 2°46.548 6 349 3.2 102580 50
2003-04-08 08:34:04 51°11.76 2°46.518 5.7   3.2 102580 50
2003-04-08 08:34:08 51°11.752 2°46.495 5.5 346 3.2 102580 51
2003-04-08 08:34:14 51°11.741 2°46.46 5.7 359 3.2 102580 51
2003-04-08 08:34:18 51°11.733 2°46.437 5.3 351 3.2 102580 51
2003-04-08 08:34:24 51°11.722 2°46.401 6.4 3 3.2 102580 51
2003-04-08 08:34:28 51°11.714 2°46.378 5.7 357 3.2 102580 49
2003-04-08 08:34:34 51°11.703 2°46.343 5.9 3 3.2 102580 49
2003-04-08 08:34:39 51°11.695 2°46.313 6.6 352 3.2 102580 48
2003-04-08 08:34:44 51°11.686 2°46.283 6.4 355 3.2 102580 48
2003-04-08 08:34:48 51°11.679 2°46.259 6.2 347 3.2 102590 50
2003-04-08 08:34:54 51°11.668 2°46.223 5.9 355 3.2 102590 50
2003-04-08 08:34:58 51°11.661 2°46.199 5.3 351 3.2 102580 50
2003-04-08 08:35:04 51°11.652 2°46.163 6 355 3.2 102580 50
2003-04-08 08:35:08 51°11.644 2°46.14 6 346 3.2 102580 51
2003-04-08 08:35:14 51°11.635 2°46.104 5.9 356 3.2 102580 51
2003-04-08 08:35:19 51°11.626 2°46.073 6.5 351 3.2 102580 51
2003-04-08 08:35:24 51°11.618 2°46.042 6 356 3.2 102580 51
2003-04-08 08:35:28 51°11.612 2°46.017 6.1 349 3.2 102590 51
2003-04-08 08:35:34 51°11.602 2°45.981 5.4 354 3.2 102590 51
2003-04-08 08:35:39 51°11.595 2°45.951 6.1 358 3.2 102580 51
2003-04-08 08:35:44 51°11.586 2°45.92 5.8 358 3.2 102580 51
2003-04-08 08:35:48 51°11.58 2°45.897 5.7 357 3.2 102580 51
2003-04-08 08:35:54 51°11.57 2°45.86 5.7 356 3.2 102580 51
2003-04-08 08:35:58 51°11.564 2°45.836 5.8 356 3.2 102580 52
2003-04-08 08:36:04 51°11.554 2°45.8 6.3 356 3.2 102580 52
2003-04-08 08:36:08 51°11.548 2°45.776 6.3 356 3.1 102580 50
2003-04-08 08:36:14 51°11.538 2°45.74 6.5 360 3.1 102580 50
2003-04-08 08:36:18 51°11.531 2°45.717 6.2 358 3.2 102590 51
2003-04-08 08:36:24 51°11.521 2°45.68 6.1 4 3.2 102590 51
2003-04-08 08:36:28 51°11.515 2°45.655 5.8   3.2 102580 51
2003-04-08 08:36:34 51°11.505 2°45.62 5.5 358 3.2 102580 51
2003-04-08 08:36:38 51°11.498 2°45.596 5.4 3 3.1 102580 51
2003-04-08 08:36:44 51°11.488 2°45.56 5.5 3 3.1 102580 51
2003-04-08 08:36:48 51°11.481 2°45.536 5.4   3.1 102580 51
2003-04-08 08:36:54 51°11.471 2°45.5 5.5 1 3.1 102580 51
2003-04-08 08:36:59 51°11.463 2°45.47 5.6 358 3.1 102580 52
2003-04-08 08:37:04 51°11.454 2°45.441 6.3 357 3.1 102580 52
2003-04-08 08:37:08 51°11.448 2°45.416 5.4 355 3.1 102590 51
2003-04-08 08:37:14 51°11.438 2°45.38 5.3 3 3.1 102590 51
2003-04-08 08:37:18 51°11.43 2°45.357 5.5 352 3.2 102590 53
2003-04-08 08:37:24 51°11.421 2°45.32 5.3 4 3.2 102590 53
2003-04-08 08:37:28 51°11.414 2°45.297 5.4 352 3.2 102590 52
2003-04-08 08:37:34 51°11.404 2°45.26 5.6 356 3.2 102590 52
2003-04-08 08:37:38 51°11.398 2°45.235 5.3 358 3.2 102580 52
2003-04-08 08:37:44 51°11.388 2°45.2 5.7 353 3.2 102580 52
2003-04-08 08:37:48 51°11.381 2°45.176 5.6 356 3.2 102580 51
2003-04-08 08:37:54 51°11.371 2°45.139 5.3 355 3.2 102580 51
2003-04-08 08:37:58 51°11.364 2°45.115 5.9 358 3.1 102580 52
2003-04-08 08:38:04 51°11.355 2°45.079 5.6 4 3.1 102580 52
2003-04-08 08:38:08 51°11.348 2°45.055 6.1 354 3.1 102580 51
2003-04-08 08:38:14 51°11.339 2°45.019 6 355 3.1 102580 51
2003-04-08 08:38:18 51°11.331 2°44.995 5.9 351 3.1 102580 52
2003-04-08 08:38:24 51°11.321 2°44.959 5.8 353 3.1 102580 52
2003-04-08 08:38:28 51°11.315 2°44.934 5.2 353 3.1 102580 53
2003-04-08 08:38:34 51°11.305 2°44.898 5.3 352 3.1 102580 53
2003-04-08 08:38:39 51°11.297 2°44.868 5.9 357 3.1 102580 52
2003-04-08 08:38:44 51°11.288 2°44.838 5.4 353 3.1 102580 52
2003-04-08 08:38:48 51°11.282 2°44.813 5.4 354 3.1 102590 51
2003-04-08 08:38:52 51°11.275 2°44.788 5.6 360 3.1 102590 51
2003-04-08 08:38:58 51°11.266 2°44.751 5.4 359 3.1 102580 51
2003-04-08 08:39:04 51°11.257 2°44.714 6.1 2 3.1 102580 51
2003-04-08 08:39:08 51°11.251 2°44.689 6.5 5 3.1 102590 50
2003-04-08 08:39:14 51°11.243 2°44.652 5.8 1 3.1 102590 50
2003-04-08 08:39:19 51°11.235 2°44.621 5.7 4 3.1 102580 51
2003-04-08 08:39:24 51°11.228 2°44.591 5.4 359 3.1 102580 51
2003-04-08 08:39:28 51°11.222 2°44.566 5.3 355 3.1 102590 51
2003-04-08 08:39:34 51°11.214 2°44.528 5 360 3.1 102590 51
2003-04-08 08:39:38 51°11.207 2°44.504 5.5 357 3.1 102580 50
2003-04-08 08:39:44 51°11.199 2°44.466 5.6 1 3.1 102580 50
2003-04-08 08:39:48 51°11.193 2°44.442 5 354 3.1 102580 50
2003-04-08 08:39:54 51°11.184 2°44.405 5.3 357 3.1 102580 50
2003-04-08 08:39:58 51°11.179 2°44.38 5.3 352 3.2 102590 50
2003-04-08 08:40:04 51°11.169 2°44.343 5.2 353 3.2 102590 50
2003-04-08 08:40:08 51°11.164 2°44.319 5.8 352 3.1 102590 50
2003-04-08 08:40:12 51°11.158 2°44.294 5.4 351 3.1 102590 50
2003-04-08 08:40:19 51°11.148 2°44.25 5.5 353 3.2 102590 50
2003-04-08 08:40:24 51°11.14 2°44.22 5.9 353 3.2 102590 50
2003-04-08 08:40:28 51°11.135 2°44.195 5.9 354 3.2 102580 51
2003-04-08 08:40:34 51°11.126 2°44.158 4.9 357 3.2 102580 51
2003-04-08 08:40:39 51°11.119 2°44.127 5.2 350 3.2 102580 50
2003-04-08 08:40:44 51°11.111 2°44.097 5.7 354 3.2 102580 50
2003-04-08 08:40:48 51°11.105 2°44.072 5.9 358 3.2 102590 50
2003-04-08 08:40:54 51°11.097 2°44.035 5.5 357 3.2 102590 50
2003-04-08 08:40:59 51°11.089 2°44.004 6 353 3.2 102590 50
2003-04-08 08:41:04 51°11.082 2°43.973 5.4 355 3.2 102590 50
2003-04-08 08:41:08 51°11.076 2°43.948 6 357 3.2 102580 51
2003-04-08 08:41:14 51°11.067 2°43.911 5.4 352 3.2 102580 51
2003-04-08 08:41:18 51°11.062 2°43.886 5 354 3.2 102590 51
2003-04-08 08:41:24 51°11.052 2°43.849 5.6 357 3.2 102590 51
2003-04-08 08:41:28 51°11.047 2°43.824 5.3 353 3.2 102580 50
2003-04-08 08:41:34 51°11.037 2°43.788 5.3 358 3.2 102580 50
2003-04-08 08:41:39 51°11.031 2°43.756 5.3 349 3.2 102590 49
2003-04-08 08:41:44 51°11.023 2°43.727 5.6 352 3.2 102590 49
2003-04-08 08:41:48 51°11.018 2°43.702 5.6 353 3.2 102580 48
2003-04-08 08:41:54 51°11.009 2°43.665 6.5 346 3.2 102580 48
2003-04-08 08:41:58 51°11.004 2°43.64 6.3 5 3.2 102580 49
2003-04-08 08:42:04 51°10.994 2°43.603 6 353 3.2 102580 49
2003-04-08 08:42:08 51°10.989 2°43.579 5.9 352 3.2 102590 51
2003-04-08 08:42:14 51°10.98 2°43.542 5.9 353 3.2 102590 51
2003-04-08 08:42:18 51°10.974 2°43.517 5.6 356 3.2 102580 52
2003-04-08 08:42:24 51°10.965 2°43.48 5.5 356 3.2 102580 52
2003-04-08 08:42:28 51°10.959 2°43.455 5.3 352 3.2 102580 53
2003-04-08 08:42:34 51°10.95 2°43.418 6.1 357 3.2 102580 53
2003-04-08 08:42:38 51°10.944 2°43.393 5.4 352 3.2 102590 52
2003-04-08 08:42:44 51°10.935 2°43.356 4.9 354 3.2 102590 52
2003-04-08 08:42:48 51°10.93 2°43.331 5.1 360 3.2 102580 51
2003-04-08 08:42:54 51°10.921 2°43.294 5.1 359 3.2 102580 51
2003-04-08 08:42:59 51°10.914 2°43.263 5 358 3.2 102590 52
2003-04-08 08:43:04 51°10.906 2°43.232 5 358 3.2 102590 52
2003-04-08 08:43:08 51°10.9 2°43.207 5 353 3.2 102590 51
2003-04-08 08:43:14 51°10.891 2°43.17 5.8 359 3.2 102590 51
2003-04-08 08:43:19 51°10.885 2°43.139 5.4 357 3.2 102590 51
2003-04-08 08:43:24 51°10.877 2°43.109 6 352 3.2 102590 51
2003-04-08 08:43:28 51°10.872 2°43.083 5.9 357 3.2 102580 50
2003-04-08 08:43:34 51°10.863 2°43.046 5.9 357 3.2 102580 50
2003-04-08 08:43:38 51°10.857 2°43.021 5.8 345 3.2 102590 51
2003-04-08 08:43:44 51°10.848 2°42.984 5.7 2 3.2 102590 51
2003-04-08 08:43:48 51°10.842 2°42.959 5.4 348 3.2 102580 53
2003-04-08 08:43:54 51°10.833 2°42.923 5.7 359 3.2 102580 53
2003-04-08 08:43:59 51°10.827 2°42.891 6 350 3.2 102580 52
2003-04-08 08:44:04 51°10.819 2°42.86 6 5 3.2 102580 52
2003-04-08 08:44:08 51°10.813 2°42.836 5.4 352 3.2 102590 52
2003-04-08 08:44:14 51°10.805 2°42.799 5.9 2 3.2 102590 52
2003-04-08 08:44:18 51°10.798 2°42.775 5.9 357 3.2 102590 51
2003-04-08 08:44:24 51°10.79 2°42.737 6.1 358 3.2 102590 51
2003-04-08 08:44:28 51°10.784 2°42.713 6.1 352 3.2 102590 52
2003-04-08 08:44:34 51°10.776 2°42.674 5.6 358 3.2 102590 52
2003-04-08 08:44:39 51°10.77 2°42.643 5.3 347 3.2 102590 52
2003-04-08 08:44:44 51°10.764 2°42.611 5.7 352 3.2 102590 52
2003-04-08 08:44:48 51°10.76 2°42.586 6.2 350 3.2 102590 51
2003-04-08 08:44:54 51°10.754 2°42.548 5.2 350 3.2 102590 51
2003-04-08 08:44:59 51°10.749 2°42.515 5.1 353 3.2 102580 51
2003-04-08 08:45:04 51°10.745 2°42.482 5.4 345 3.2 102580 51
2003-04-08 08:45:08 51°10.741 2°42.456 5.7 346 3.2 102580 51
2003-04-08 08:45:14 51°10.737 2°42.417 5.4 348 3.2 102580 51
2003-04-08 08:45:19 51°10.733 2°42.384 5.1 343 3.2 102590 50
2003-04-08 08:45:24 51°10.73 2°42.351 5.8 350 3.2 102590 50
2003-04-08 08:45:28 51°10.728 2°42.324 6.1 347 3.2 102590 50
2003-04-08 08:45:34 51°10.725 2°42.284 5.9 349 3.2 102590 50
2003-04-08 08:45:39 51°10.722 2°42.252 5.8 348 3.2 102590 49
2003-04-08 08:45:44 51°10.719 2°42.22 5.6 345 3.2 102590 49
2003-04-08 08:45:48 51°10.717 2°42.193 5.3 354 3.2 102590 50
2003-04-08 08:45:54 51°10.713 2°42.152 6 345 3.2 102590 50
2003-04-08 08:45:59 51°10.711 2°42.12 5.6 351 3.2 102590 52
2003-04-08 08:46:04 51°10.707 2°42.087 5.4 350 3.2 102590 52
2003-04-08 08:46:08 51°10.705 2°42.061 5.6 344 3.2 102590 52
2003-04-08 08:46:14 51°10.701 2°42.021 5.7 351 3.2 102590 52
2003-04-08 08:46:19 51°10.698 2°41.988 5.4 346 3.2 102590 51
2003-04-08 08:46:24 51°10.694 2°41.955 4.9 347 3.2 102590 51
2003-04-08 08:46:28 51°10.692 2°41.929 5.1 353 3.2 102590 50
2003-04-08 08:46:34 51°10.687 2°41.89 5.5 342 3.2 102590 50
2003-04-08 08:46:39 51°10.683 2°41.858 5.8 348 3.2 102590 50
2003-04-08 08:46:44 51°10.679 2°41.825 5.1 348 3.2 102590 50
2003-04-08 08:46:48 51°10.676 2°41.799 5.2 344 3.2 102590 49
2003-04-08 08:46:54 51°10.671 2°41.76 5.2 344 3.2 102590 49
2003-04-08 08:46:58 51°10.667 2°41.734 5.4 351 3.2 102590 49
2003-04-08 08:47:04 51°10.663 2°41.695 5.3 347 3.2 102590 49
2003-04-08 08:47:08 51°10.659 2°41.669 5.6 341 3.2 102590 48
2003-04-08 08:47:14 51°10.654 2°41.63 5.2 354 3.2 102590 48
2003-04-08 08:47:19 51°10.65 2°41.598 4.9 352 3.2 102590 48
2003-04-08 08:47:24 51°10.644 2°41.566 5.1 355 3.2 102590 48
2003-04-08 08:47:28 51°10.64 2°41.54 5.2 351 3.2 102590 49
2003-04-08 08:47:34 51°10.633 2°41.502 5.3 355 3.2 102590 49
2003-04-08 08:47:38 51°10.629 2°41.476 5.3 355 3.2 102590 50
2003-04-08 08:47:44 51°10.621 2°41.439 5.1 351 3.2 102590 50
2003-04-08 08:47:48 51°10.616 2°41.413 5 355 3.2 102590 50
2003-04-08 08:47:54 51°10.608 2°41.376 5 351 3.2 102590 50
2003-04-08 08:47:58 51°10.603 2°41.35 5.1 352 3.2 102590 50
2003-04-08 08:48:04 51°10.596 2°41.312 5 348 3.2 102590 50
2003-04-08 08:48:08 51°10.59 2°41.287 5 351 3.2 102580 50
2003-04-08 08:48:14 51°10.583 2°41.249 5.5 348 3.2 102580 50
2003-04-08 08:48:18 51°10.578 2°41.223 5.4 349 3.2 102590 50
2003-04-08 08:48:24 51°10.57 2°41.185 6.1 350 3.2 102590 50
2003-04-08 08:48:28 51°10.565 2°41.16 6 354 3.3 102590 51
2003-04-08 08:48:34 51°10.557 2°41.122 5.9 351 3.3 102590 51
2003-04-08 08:48:38 51°10.552 2°41.097 6 351 3.3 102590 51
2003-04-08 08:48:44 51°10.545 2°41.059 5.5 353 3.3 102590 51
2003-04-08 08:48:48 51°10.54 2°41.034 5.5 352 3.3 102590 53
2003-04-08 08:48:54 51°10.532 2°40.996 5.7 350 3.3 102590 53
2003-04-08 08:48:59 51°10.526 2°40.964 5.4 357 3.3 102590 52
2003-04-08 08:49:04 51°10.52 2°40.932 5.6 351 3.3 102590 52
2003-04-08 08:49:08 51°10.515 2°40.907 5.7 352 3.3 102580 51
2003-04-08 08:49:14 51°10.508 2°40.868 4.7 355 3.3 102580 51
2003-04-08 08:49:18 51°10.502 2°40.843 5.1 350 3.3 102590 51
2003-04-08 08:49:24 51°10.495 2°40.805 4.9 2 3.3 102590 51
2003-04-08 08:49:28 51°10.489 2°40.78 4.8 354 3.3 102580 51
2003-04-08 08:49:34 51°10.48 2°40.743 5.4 360 3.3 102580 51
2003-04-08 08:49:39 51°10.474 2°40.711 5.8 357 3.3 102590 50
2003-04-08 08:49:44 51°10.466 2°40.68 5.5 352 3.3 102590 50
2003-04-08 08:49:48 51°10.461 2°40.655 5.2 1 3.3 102590 50
2003-04-08 08:49:54 51°10.451 2°40.618 5.5 353 3.3 102590 50
2003-04-08 08:49:58 51°10.446 2°40.592 4.8 357 3.3 102590 50
2003-04-08 08:50:04 51°10.437 2°40.555 4.9 355 3.3 102590 50
2003-04-08 08:50:08 51°10.431 2°40.53 5.3 355 3.2 102580 51
2003-04-08 08:50:14 51°10.422 2°40.493 5.3 355 3.2 102580 51
2003-04-08 08:50:18 51°10.416 2°40.468 5.2 347 3.2 102580 51
2003-04-08 08:50:24 51°10.406 2°40.431 4.6 357 3.2 102580 51
2003-04-08 08:50:28 51°10.401 2°40.406 5.8 351 3.2 102580 51
2003-04-08 08:50:34 51°10.391 2°40.369 5.5 344 3.2 102580 51
2003-04-08 08:50:39 51°10.384 2°40.337 5.6 355 3.2 102580 51
2003-04-08 08:50:44 51°10.376 2°40.307 5.3 345 3.2 102580 51
2003-04-08 08:50:48 51°10.37 2°40.282 5 2 3.2 102590 51
2003-04-08 08:50:54 51°10.36 2°40.246 5.3 343 3.2 102590 51
2003-04-08 08:50:59 51°10.353 2°40.214 5.5 358 3.2 102590 52
2003-04-08 08:51:04 51°10.346 2°40.183 5.3 350 3.2 102590 52
2003-04-08 08:51:08 51°10.34 2°40.158 5.5 351 3.2 102590 51
2003-04-08 08:51:14 51°10.331 2°40.121 5.1 350 3.2 102590 51
2003-04-08 08:51:18 51°10.325 2°40.097 5.2 348 3.3 102580 52
2003-04-08 08:51:24 51°10.315 2°40.06 5.5 350 3.3 102580 52
2003-04-08 08:51:29 51°10.308 2°40.029 5.4 347 3.2 102590 51
2003-04-08 08:51:34 51°10.301 2°39.998 5.2 355 3.2 102590 51
2003-04-08 08:51:38 51°10.294 2°39.974 4.9 353 3.2 102590 51
2003-04-08 08:51:44 51°10.286 2°39.936 5.2 358 3.2 102590 51
2003-04-08 08:51:48 51°10.279 2°39.912 5.2 349 3.3 102590 51
2003-04-08 08:51:54 51°10.27 2°39.875 5.3 351 3.3 102590 51
2003-04-08 08:51:59 51°10.263 2°39.844 5.2 355 3.3 102590 50
2003-04-08 08:52:04 51°10.254 2°39.814 5 347 3.3 102590 50
2003-04-08 08:52:08 51°10.249 2°39.789 5.2 355 3.3 102580 51
2003-04-08 08:52:14 51°10.239 2°39.752 4.6 349 3.3 102580 51
2003-04-08 08:52:18 51°10.235 2°39.727 5 355 3.3 102590 49
2003-04-08 08:52:24 51°10.225 2°39.69 4.7 348 3.3 102590 49
2003-04-08 08:52:28 51°10.219 2°39.666 5.6 352 3.3 102590 49
2003-04-08 08:52:34 51°10.21 2°39.629 5.4 352 3.3 102590 49
2003-04-08 08:52:39 51°10.202 2°39.599 5.5 359 3.3 102580 49
2003-04-08 08:52:44 51°10.195 2°39.567 6.2 353 3.3 102580 49
2003-04-08 08:52:48 51°10.188 2°39.543 5.8 352 3.3 102580 50
2003-04-08 08:52:54 51°10.18 2°39.506 5.5 2 3.3 102580 50
2003-04-08 08:52:58 51°10.173 2°39.481 5.6 349 3.3 102590 51
2003-04-08 08:53:04 51°10.164 2°39.444 4.9 356 3.3 102590 51
2003-04-08 08:53:08 51°10.158 2°39.419 5.3 351 3.3 102590 51
2003-04-08 08:53:14 51°10.149 2°39.381 5.6 353 3.3 102590 51
2003-04-08 08:53:19 51°10.142 2°39.35 5.6 347 3.3 102590 50
2003-04-08 08:53:24 51°10.134 2°39.319 4.9 350 3.3 102590 50
2003-04-08 08:53:28 51°10.128 2°39.294 5.6 350 3.3 102590 51
2003-04-08 08:53:34 51°10.119 2°39.257 4.8 352 3.3 102590 51
2003-04-08 08:53:38 51°10.113 2°39.232 5.2 356 3.3 102590 50
2003-04-08 08:53:44 51°10.104 2°39.195 5.4 349 3.3 102590 50
2003-04-08 08:53:48 51°10.098 2°39.17 5 345 3.3 102590 50
2003-04-08 08:53:54 51°10.089 2°39.134 4.7 352 3.3 102590 50
2003-04-08 08:53:58 51°10.083 2°39.109 5.7 339 3.3 102580 50
2003-04-08 08:54:04 51°10.074 2°39.071 4.9 345 3.3 102580 50
2003-04-08 08:54:08 51°10.068 2°39.047 5.4 344 3.3 102590 49
2003-04-08 08:54:14 51°10.059 2°39.009 5.3 348 3.3 102590 49
2003-04-08 08:54:19 51°10.051 2°38.978 4.7 1 3.3 102590 50
2003-04-08 08:54:24 51°10.044 2°38.946 4.9 336 3.3 102590 50
2003-04-08 08:54:29 51°10.036 2°38.916 5 350 3.3 102590 49
2003-04-08 08:54:34 51°10.029 2°38.884 5.3 351 3.3 102590 49
2003-04-08 08:54:38 51°10.022 2°38.859 5.3 352 3.3 102590 51
2003-04-08 08:54:44 51°10.013 2°38.82 5.4 348 3.3 102590 51
2003-04-08 08:54:48 51°10.007 2°38.795 5.3 353 3.3 102590 51
2003-04-08 08:54:54 51°9.998 2°38.759 5.2 351 3.3 102590 51
2003-04-08 08:54:59 51°9.99 2°38.728 6.1 350 3.3 102590 51
2003-04-08 08:55:04 51°9.983 2°38.696 6 350 3.3 102590 51
2003-04-08 08:55:08 51°9.976 2°38.672 5.8 354 3.3 102590 51
2003-04-08 08:55:14 51°9.967 2°38.635 5.2 342 3.3 102590 51
2003-04-08 08:55:18 51°9.961 2°38.609 5.1 351 3.3 102580 52
2003-04-08 08:55:24 51°9.952 2°38.573 5.3 348 3.3 102580 52
2003-04-08 08:55:28 51°9.946 2°38.549 4.9 343 3.3 102590 50
2003-04-08 08:55:34 51°9.937 2°38.512 4.9 349 3.3 102590 50
2003-04-08 08:55:39 51°9.93 2°38.48 5.1 345 3.3 102590 50
2003-04-08 08:55:44 51°9.921 2°38.45 5.4 355 3.3 102590 50
2003-04-08 08:55:48 51°9.916 2°38.425 5.7 346 3.3 102590 51
2003-04-08 08:55:54 51°9.906 2°38.39 5.1 360 3.3 102590 51
2003-04-08 08:55:59 51°9.899 2°38.36 5.1 350 3.3 102590 51
2003-04-08 08:56:04 51°9.891 2°38.33 5.5 356 3.3 102590 51
2003-04-08 08:56:08 51°9.885 2°38.306 5.1 348 3.3 102600 51
2003-04-08 08:56:14 51°9.875 2°38.27 4.9 355 3.3 102600 51
2003-04-08 08:56:18 51°9.869 2°38.246 5.1 354 3.3 102590 51
2003-04-08 08:56:24 51°9.859 2°38.21 4.6 349 3.3 102590 51
2003-04-08 08:56:28 51°9.852 2°38.187 5.4 357 3.3 102590 50
2003-04-08 08:56:34 51°9.842 2°38.151 5.2 350 3.3 102590 50
2003-04-08 08:56:39 51°9.834 2°38.121 5.4 6 3.3 102590 49
2003-04-08 08:56:44 51°9.826 2°38.09 5.4 360 3.3 102590 49
2003-04-08 08:56:49 51°9.817 2°38.061 5.3 360 3.3 102580 49
2003-04-08 08:56:54 51°9.809 2°38.03 5.3 4 3.3 102580 49
2003-04-08 08:56:59 51°9.8 2°38 5.3 347 3.3 102590 51
2003-04-08 08:57:04 51°9.792 2°37.969 5.6 2 3.3 102590 51
2003-04-08 08:57:08 51°9.785 2°37.945 5.5 347 3.3 102580 52
2003-04-08 08:57:14 51°9.776 2°37.908 5.8 359 3.3 102580 52
2003-04-08 08:57:19 51°9.767 2°37.878 6.1 346 3.4 102590 53
2003-04-08 08:57:24 51°9.759 2°37.847 5.5 2 3.4 102590 53
2003-04-08 08:57:28 51°9.752 2°37.824 5.5 349 3.3 102590 53
2003-04-08 08:57:34 51°9.742 2°37.787 5.1 359 3.3 102590 53
2003-04-08 08:57:39 51°9.734 2°37.757 5.5 351 3.4 102590 52
2003-04-08 08:57:44 51°9.726 2°37.726 5.2 353 3.4 102590 52
2003-04-08 08:57:48 51°9.719 2°37.702 4.7 351 3.3 102590 51
2003-04-08 08:57:54 51°9.709 2°37.665 5 352 3.3 102590 51
2003-04-08 08:57:58 51°9.703 2°37.641 5.7 354 3.3 102590 51
2003-04-08 08:58:04 51°9.693 2°37.604 5.8 351 3.3 102590 51
2003-04-08 08:58:08 51°9.686 2°37.58 5.8 358 3.3 102590 50
2003-04-08 08:58:14 51°9.675 2°37.544 6.3 346 3.3 102590 50
2003-04-08 08:58:18 51°9.67 2°37.519 5.6 359 3.3 102590 51
2003-04-08 08:58:24 51°9.657 2°37.483 5.7 346 3.3 102590 51
2003-04-08 08:58:28 51°9.652 2°37.457 4.9 358 3.3 102590 52
2003-04-08 08:58:34 51°9.641 2°37.421 5.1 345 3.3 102590 52
2003-04-08 08:58:38 51°9.635 2°37.396 5.6 346 3.3 102590 53
2003-04-08 08:58:44 51°9.624 2°37.36 5.3 340 3.3 102590 53
2003-04-08 08:58:48 51°9.618 2°37.336 5.1 355 3.3 102590 51
2003-04-08 08:58:54 51°9.607 2°37.3 5.1 343 3.3 102590 51
2003-04-08 08:58:59 51°9.599 2°37.269 5.5 357 3.3 102590 50
2003-04-08 08:59:04 51°9.59 2°37.24 5.3 355 3.3 102590 50
2003-04-08 08:59:08 51°9.583 2°37.216 5.3 349 3.3 102590 50
2003-04-08 08:59:14 51°9.574 2°37.18 5.8 352 3.3 102590 50
2003-04-08 08:59:19 51°9.565 2°37.149 6.1 352 3.3 102600 51
2003-04-08 08:59:24 51°9.557 2°37.118 5.8 354 3.3 102600 51
2003-04-08 08:59:28 51°9.55 2°37.094 5.9 353 3.3 102590 52
2003-04-08 08:59:34 51°9.541 2°37.057 5.9 355 3.3 102590 52
2003-04-08 08:59:39 51°9.532 2°37.027 6.4 356 3.3 102590 52
2003-04-08 08:59:44 51°9.524 2°36.996 5.9 3 3.3 102590 52
2003-04-08 08:59:48 51°9.517 2°36.972 5.3 359 3.3 102590 52
2003-04-08 08:59:54 51°9.508 2°36.934 5.8 2 3.3 102590 52
2003-04-08 08:59:58 51°9.501 2°36.91 5.8 357 3.3 102590 51
2003-04-08 09:00:04 51°9.491 2°36.874 5.7 1 3.3 102590 51
2003-04-08 09:00:08 51°9.484 2°36.849 5.6 350 3.3 102590 51
2003-04-08 09:00:14 51°9.474 2°36.812 5.1 2 3.3 102590 51
2003-04-08 09:00:18 51°9.467 2°36.788 5.2 356 3.3 102590 51
2003-04-08 09:00:24 51°9.457 2°36.751 5.1 2 3.3 102590 51
2003-04-08 09:00:28 51°9.45 2°36.727 5 356 3.3 102590 51
2003-04-08 09:00:34 51°9.441 2°36.69 5 358 3.3 102590 51
2003-04-08 09:00:39 51°9.432 2°36.659 5.1 354 3.3 102590 51
2003-04-08 09:00:44 51°9.423 2°36.629 5.8 354 3.3 102590 51
2003-04-08 09:00:48 51°9.418 2°36.604 5.8 355 3.3 102590 51
2003-04-08 09:00:52 51°9.411 2°36.579 6 356 3.3 102590 51
2003-04-08 09:00:58 51°9.401 2°36.543 6.2 358 3.3 102590 50
2003-04-08 09:01:04 51°9.391 2°36.506 5.8 354 3.3 102590 50
2003-04-08 09:01:08 51°9.384 2°36.481 5.3 355 3.4 102590 51
2003-04-08 09:01:14 51°9.374 2°36.444 5.1 354 3.4 102590 51
2003-04-08 09:01:19 51°9.366 2°36.414 5.2 357 3.4 102590 52
2003-04-08 09:01:24 51°9.357 2°36.383 4.9 352 3.4 102590 52
2003-04-08 09:01:28 51°9.351 2°36.358 4.7 359 3.4 102590 52
2003-04-08 09:01:34 51°9.341 2°36.321 4.8 356 3.4 102590 52
2003-04-08 09:01:38 51°9.335 2°36.296 4.6 353 3.4 102590 52
2003-04-08 09:01:44 51°9.325 2°36.259 5.6 347 3.4 102590 52
2003-04-08 09:01:48 51°9.318 2°36.234 5.1 356 3.4 102590 52
2003-04-08 09:01:54 51°9.308 2°36.197 5.1 353 3.4 102590 52
2003-04-08 09:01:58 51°9.302 2°36.173 5 341 3.4 102590 52
2003-04-08 09:02:04 51°9.291 2°36.137 5.3 352 3.4 102590 52
2003-04-08 09:02:08 51°9.285 2°36.112 4.9 352 3.4 102590 52
2003-04-08 09:02:14 51°9.274 2°36.075 5.5 355 3.4 102590 52
2003-04-08 09:02:18 51°9.268 2°36.051 5.6 357 3.4 102590 52
2003-04-08 09:02:24 51°9.258 2°36.014 5.7 357 3.4 102590 52
2003-04-08 09:02:28 51°9.252 2°35.988 5.6 354 3.4 102590 52
2003-04-08 09:02:34 51°9.242 2°35.951 5.4 349 3.4 102590 52
2003-04-08 09:02:38 51°9.235 2°35.926 6.1 359 3.4 102590 53
2003-04-08 09:02:44 51°9.225 2°35.89 5.1 358 3.4 102590 53
2003-04-08 09:02:48 51°9.218 2°35.865 5.2 357 3.4 102590 52
2003-04-08 09:02:54 51°9.208 2°35.828 5.5 359 3.4 102590 52
2003-04-08 09:02:59 51°9.2 2°35.796 5.2 352 3.4 102590 52
2003-04-08 09:03:04 51°9.192 2°35.766 5.2   3.4 102590 52
2003-04-08 09:03:08 51°9.185 2°35.741 5.4 343 3.4 102580 52
2003-04-08 09:03:14 51°9.175 2°35.704 5.3 347 3.4 102580 52
2003-04-08 09:03:19 51°9.166 2°35.673 5.7 347 3.4 102590 52
2003-04-08 09:03:24 51°9.158 2°35.642 5.4 353 3.4 102590 52
2003-04-08 09:03:28 51°9.151 2°35.617 5.3 353 3.4 102590 52
2003-04-08 09:03:34 51°9.141 2°35.58 4.8 354 3.4 102590 52
2003-04-08 09:03:39 51°9.132 2°35.549 5.4 351 3.4 102590 52
2003-04-08 09:03:44 51°9.124 2°35.518 5.3 352 3.4 102590 52
2003-04-08 09:03:48 51°9.117 2°35.493 4.9 353 3.4 102580 52
2003-04-08 09:03:54 51°9.107 2°35.456 5.7 352 3.4 102580 52
2003-04-08 09:03:58 51°9.1 2°35.432 5.6 351 3.4 102590 52
2003-04-08 09:04:04 51°9.09 2°35.394 5.2 352 3.4 102590 52
2003-04-08 09:04:08 51°9.084 2°35.369 4.9 347 3.4 102580 52
2003-04-08 09:04:14 51°9.073 2°35.332 5.2 349 3.4 102580 52
2003-04-08 09:04:19 51°9.065 2°35.301 5.4 348 3.4 102590 52
2003-04-08 09:04:24 51°9.057 2°35.27 5.2 349 3.4 102590 52
2003-04-08 09:04:28 51°9.05 2°35.245 5.1 353 3.4 102590 51
2003-04-08 09:04:34 51°9.04 2°35.208 5.3 346 3.4 102590 51
2003-04-08 09:04:38 51°9.034 2°35.182 5.5 351 3.4 102590 51
2003-04-08 09:04:44 51°9.023 2°35.145 5.5 352 3.4 102590 51
2003-04-08 09:04:48 51°9.017 2°35.12 5.9 355 3.4 102590 51
2003-04-08 09:04:54 51°9.006 2°35.083 5.5 349 3.4 102590 51
2003-04-08 09:04:58 51°9 2°35.058 6 352 3.4 102590 53
2003-04-08 09:05:04 51°8.99 2°35.02 5.3 352 3.4 102590 53
2003-04-08 09:05:08 51°8.983 2°34.996 5.4 351 3.4 102590 55
2003-04-08 09:05:14 51°8.973 2°34.958 5.6 355 3.4 102590 55
2003-04-08 09:05:18 51°8.966 2°34.934 5.1 350 3.4 102580 55
2003-04-08 09:05:24 51°8.956 2°34.896 5.2 350 3.4 102580 55
2003-04-08 09:05:29 51°8.948 2°34.866 4.7 350 3.5 102590 55
2003-04-08 09:05:34 51°8.939 2°34.835 4.7 356 3.5 102590 55
2003-04-08 09:05:39 51°8.93 2°34.804 5.3 353 3.5 102590 53
2003-04-08 09:05:44 51°8.922 2°34.772 4.9 359 3.5 102590 53
2003-04-08 09:05:48 51°8.915 2°34.747 4.8 351 3.5 102590 53
2003-04-08 09:05:54 51°8.905 2°34.71 5.2 352 3.5 102590 53
2003-04-08 09:05:59 51°8.896 2°34.68 5.4 355 3.4 102590 53
2003-04-08 09:06:04 51°8.888 2°34.648 5.4 350 3.4 102590 53
2003-04-08 09:06:08 51°8.881 2°34.623 6.1 351 3.5 102590 53
2003-04-08 09:06:14 51°8.871 2°34.586 5.2 346 3.5 102590 53
2003-04-08 09:06:18 51°8.864 2°34.561 5.6 345 3.4 102590 52
2003-04-08 09:06:24 51°8.853 2°34.523 5.4 347 3.4 102590 52
2003-04-08 09:06:28 51°8.846 2°34.499 5.2 340 3.4 102590 53
2003-04-08 09:06:34 51°8.836 2°34.461 5.1 342 3.4 102590 53
2003-04-08 09:06:38 51°8.829 2°34.436 5 338 3.4 102590 51
2003-04-08 09:06:44 51°8.819 2°34.399 4.6 343 3.4 102590 51
2003-04-08 09:06:48 51°8.812 2°34.374 4.5 345 3.4 102580 50
2003-04-08 09:06:54 51°8.802 2°34.336 5.3 352 3.4 102580 50
2003-04-08 09:06:59 51°8.793 2°34.305 4.8 340 3.4 102590 49
2003-04-08 09:07:04 51°8.784 2°34.274 5.8 351 3.4 102590 49
2003-04-08 09:07:08 51°8.778 2°34.249 5.8 344 3.4 102590 50
2003-04-08 09:07:14 51°8.768 2°34.212 5.1 351 3.4 102590 50
2003-04-08 09:07:18 51°8.76 2°34.187 5.3 344 3.4 102590 51
2003-04-08 09:07:24 51°8.75 2°34.15 5.1 352 3.4 102590 51
2003-04-08 09:07:28 51°8.743 2°34.125 4.7 352 3.4 102590 50
2003-04-08 09:07:34 51°8.733 2°34.088 5.1 353 3.4 102590 50
2003-04-08 09:07:39 51°8.723 2°34.057 5.3 351 3.4 102590 49
2003-04-08 09:07:44 51°8.716 2°34.025 5 350 3.4 102590 49
2003-04-08 09:07:48 51°8.708 2°34.001 5 350 3.4 102590 48
2003-04-08 09:07:54 51°8.698 2°33.964 5.6 349 3.4 102590 48
2003-04-08 09:07:59 51°8.689 2°33.933 5 354 3.3 102580 49
2003-04-08 09:08:04 51°8.68 2°33.903 5.2 353 3.3 102580 49
2003-04-08 09:08:08 51°8.673 2°33.879 6.2 353 3.5 102590 50
2003-04-08 09:08:14 51°8.663 2°33.841 5.3 345 3.5 102590 50
2003-04-08 09:08:18 51°8.656 2°33.817 5.2 351 3.5 102590 51
2003-04-08 09:08:24 51°8.646 2°33.779 4.8 348 3.5 102590 51
2003-04-08 09:08:28 51°8.639 2°33.754 4.6 345 3.5 102590 51
2003-04-08 09:08:34 51°8.628 2°33.717 4.5 352 3.5 102590 51
2003-04-08 09:08:38 51°8.621 2°33.692 4.4 348 3.5 102590 50
2003-04-08 09:08:44 51°8.611 2°33.653 5.1 358 3.5 102590 50
2003-04-08 09:08:48 51°8.604 2°33.628 5.4 351 3.5 102590 49
2003-04-08 09:08:54 51°8.595 2°33.59 5.1 358 3.5 102590 49
2003-04-08 09:08:59 51°8.586 2°33.56 4.5 351 3.5 102590 49
2003-04-08 09:09:04 51°8.578 2°33.53 4.3 354 3.5 102590 49
2003-04-08 09:09:08 51°8.571 2°33.508 4 350 3.5 102580 51
2003-04-08 09:09:14 51°8.564 2°33.476 3.7 354 3.5 102580 51
2003-04-08 09:09:19 51°8.558 2°33.452 3.2 346 3.5 102580 51
2003-04-08 09:09:24 51°8.553 2°33.428 3.2 349 3.5 102580 51
2003-04-08 09:09:28 51°8.55 2°33.41 2.8 342 3.5 102590 52
2003-04-08 09:09:34 51°8.545 2°33.384 2.4 332 3.5 102590 52
2003-04-08 09:09:38 51°8.542 2°33.368 2.4 334 3.5 102590 51
2003-04-08 09:09:44 51°8.539 2°33.344 1.9 329 3.5 102590 51
2003-04-08 09:09:48 51°8.538 2°33.328 1.8 328 3.5 102590 51
2003-04-08 09:09:54 51°8.536 2°33.306 1.6 327 3.5 102590 51
2003-04-08 09:09:59 51°8.536 2°33.289 1.8 334 3.5 102580 51
2003-04-08 09:10:04 51°8.536 2°33.27 2 329 3.5 102580 51
2003-04-08 09:10:08 51°8.536 2°33.256 2.2 320 3.5 102590 51
2003-04-08 09:10:14 51°8.536 2°33.238 2.2 313 3.5 102590 51
2003-04-08 09:10:19 51°8.537 2°33.223 2 318 3.5 102590 50
2003-04-08 09:10:24 51°8.538 2°33.209 2.3 309 3.5 102590 50
2003-04-08 09:10:28 51°8.539 2°33.198 2.1 304 3.5 102590 50
2003-04-08 09:10:32 51°8.541 2°33.188 1.8 293 3.5 102590 50
2003-04-08 09:10:38 51°8.544 2°33.173 1.6 305 3.5 102590 50
2003-04-08 09:10:44 51°8.547 2°33.158 1.8 300 3.5 102590 50
2003-04-08 09:10:48 51°8.549 2°33.148 2.4 307 3.5 102580 52
2003-04-08 09:10:54 51°8.553 2°33.135 2.3 307 3.5 102580 52
2003-04-08 09:10:58 51°8.556 2°33.127 2.5 302 3.5 102580 51
2003-04-08 09:11:04 51°8.559 2°33.115 2.9 318 3.5 102580 51
2003-04-08 09:11:08 51°8.56 2°33.108 2.8 311 3.5 102590 51
2003-04-08 09:11:14 51°8.564 2°33.099 2.8 318 3.5 102590 51
2003-04-08 09:11:18 51°8.567 2°33.094 2.7 311 3.5 102590 52
2003-04-08 09:11:24 51°8.571 2°33.086 2.5 310 3.5 102590 52
2003-04-08 09:11:28 51°8.574 2°33.081 2.8 309 3.5 102590 51
2003-04-08 09:11:34 51°8.579 2°33.073 3.2 310 3.5 102590 51
2003-04-08 09:11:39 51°8.584 2°33.068 3.2 310 3.4 102590 50
2003-04-08 09:11:44 51°8.589 2°33.063 3.2 312 3.4 102590 50
2003-04-08 09:11:48 51°8.592 2°33.06 3.3 317 3.4 102590 50
2003-04-08 09:11:54 51°8.598 2°33.056 3.5 333 3.4 102590 50
2003-04-08 09:11:58 51°8.601 2°33.053 4 336 3.4 102580 51
2003-04-08 09:12:04 51°8.606 2°33.05 3.9 338 3.4 102580 51
2003-04-08 09:12:08 51°8.61 2°33.048 3.8 335 3.4 102580 51
2003-04-08 09:12:14 51°8.614 2°33.047 4 342 3.4 102580 51
2003-04-08 09:12:19 51°8.618 2°33.047 4.1 338 3.4 102580 51
2003-04-08 09:12:24 51°8.621 2°33.047 4 340 3.4 102580 51
2003-04-08 09:12:28 51°8.623 2°33.047 4.2 343 3.4 102580 52
2003-04-08 09:12:34 51°8.626 2°33.047 3.8 344 3.4 102580 52
2003-04-08 09:12:39 51°8.629 2°33.048 3.8 348 3.3 102590 52
2003-04-08 09:12:44 51°8.631 2°33.049 3.8 346 3.3 102590 52
2003-04-08 09:12:48 51°8.633 2°33.051 3.5 345 3.3 102580 52
2003-04-08 09:12:54 51°8.636 2°33.053 3.6 353 3.3 102580 52
2003-04-08 09:12:59 51°8.638 2°33.056 3.6 353 3.4 102580 52
2003-04-08 09:13:04 51°8.638 2°33.059 2.9 356 3.4 102580 52
2003-04-08 09:13:08 51°8.638 2°33.061 3.2 15 3.4 102580 52
2003-04-08 09:13:14 51°8.639 2°33.065 3.6 9 3.4 102580 52
2003-04-08 09:13:19 51°8.64 2°33.068 3.9 6 3.4 102590 52
2003-04-08 09:13:24 51°8.64 2°33.07 4 10 3.4 102590 52
2003-04-08 09:13:29 51°8.641 2°33.072 3.8 3 3.4 102590 53
2003-04-08 09:13:34 51°8.642 2°33.074 3.8 7 3.4 102590 53
2003-04-08 09:13:38 51°8.643 2°33.076 3.5 16 3.4 102580 52
2003-04-08 09:13:44 51°8.643 2°33.077 3.5 23 3.4 102580 52
2003-04-08 09:13:48 51°8.643 2°33.077 3.2 27 3.5 102580 52
2003-04-08 09:13:54 51°8.642 2°33.077 3 24 3.5 102580 52